Location: Bosmont
(49.7318°N, 3.8587°E)
Time: 13:40:36
(UTC+00:00)

Cosmos 1633 - Pass Details

Date: 08 February 2023
Orbit: 425 x 433 km, 82.5° (Epoch: 22 March)

Event Time Altitude Azimuth Distance (km) Brightness Sun altitude
Rises 16:05:04 0° 113° (ESE) 2,384 5.7 5.8°
Enters shadow 16:15:51 -11° 17° (NNE) 3,942 6.7 4.3°
Exits shadow 16:32:43 -46° 355° (N) 9,839 9.0 1.9°
Reaches altitude 10° 17:38:01 10° 178° (S) 1,516 5.2 -8.0°
Maximum altitude 17:41:16 62° 97° (E) 487 2.3 -8.6°
Drops below altitude 10° 17:44:34 10° 16° (NNE) 1,533 4.8 -9.1°
Sets 17:46:38 0° 13° (NNE) 2,408 5.8 -9.4°
